This is the latest recevied weather packets stored in our database for station/object K2HF. If no packets are shown the sender has not sent any weather packets the latest 1 day(s).
| Time | Temp. | Humidity | Pressure | Rain* | Wind** | Luminosity | Snow |
|---|---|---|---|---|---|---|---|
| 1778087590 | 17.22° C | 100% | 1009 hPa | 0 mm | - | - | - |
| 1778087531 | 17.22° C | 100% | 1009.1 hPa | 0 mm | - | - | - |
| 1778087349 | 17.22° C | 100% | 1009.1 hPa | 0 mm | - | - | - |
| 1778087111 | 17.22° C | 100% | 1009.2 hPa | 0 mm | - | - | - |
| 1778086812 | 17.22° C | 100% | 1009.2 hPa | 0 mm | - | - | - |
| 1778086751 | 17.22° C | 100% | 1009.1 hPa | 0 mm | - | - | - |
| 1778086630 | 17.22° C | 100% | 1009.3 hPa | 0 mm | - | - | - |
| 1778086571 | 17.22° C | 100% | 1009.2 hPa | 0 mm | - | - | - |
| 1778086270 | 17.22° C | 100% | 1009.2 hPa | 0 mm | - | - | - |
| 1778086211 | 17.22° C | 100% | 1009.2 hPa | 0 mm | - | - | - |
| 1778086150 | 17.22° C | 100% | 1009.1 hPa | 0 mm | - | - | - |
| 1778086091 | 17.22° C | 100% | 1009.2 hPa | 0 mm | - | - | - |
| 1778086030 | 17.22° C | 3% | 1009.2 hPa | 0 mm | - | - | - |
| 1778085971 | 17.22° C | 3% | 1009.2 hPa | 0 mm | - | - | - |
| 1778085910 | 17.22° C | 3% | 1009.2 hPa | 0 mm | - | - | - |
| 1778085850 | 17.22° C | 1% | 1009.4 hPa | 0 mm | - | - | - |
| 1778085790 | 17.22° C | 100% | 1009.3 hPa | 0 mm | - | - | - |
| 1778085732 | 17.22° C | 100% | 1009.5 hPa | 0 mm | - | - | - |
| 1778085431 | 17.22° C | 100% | 1009.3 hPa | 0 mm | - | - | - |
| 1778085251 | 17.22° C | 100% | 1009.4 hPa | 0 mm | - | - | - |
| 1778084590 | 17.22° C | 8% | 1009.3 hPa | 0 mm | - | - | - |
| 1778083871 | 17.78° C | 9% | 1009.6 hPa | 0 mm | - | - | - |
| 1778083751 | 17.78° C | 10% | 1009.5 hPa | 0 mm | - | - | - |
| 1778083702 | 17.78° C | 12% | 1009.4 hPa | 0 mm | - | - | - |
| 1778083570 | 17.78° C | 16% | 1009.5 hPa | 0 mm | - | - | - |
* Rain latest hour (hover to see other rain measurements)
** Current wind speed in m/s (hover to see current wind gust speed)